User: anonymous   Login
Location: Unspecified
(0.0000°N, 0.0000°E)
Time: 01:01:52
(UTC+01:00)
Language:

Orbus 21S - Orbit

View from above orbital plane
View from above orbital plane
View from above satellite
View from above satellite

Ground track
Ground track

The orbit data is extracted from the following two-line orbital elements,

1 20669U 90056C   16342.09324741 +.00000902 +00000-0 +38737-3 0  9991
2 20669 024.0170 168.1711 7118312 244.0839 029.1211 02.47679158222660
Epoch (UTC): 07 December 2016 02:14:16
Eccentricity: 0.7118312
inclination: 24.0170°
perigee height: 271 km
apogee height: 33122 km
right ascension of ascending node: 168.1711°
argument of perigee: 244.0839°
revolutions per day: 2.47679158
mean anomaly at epoch: 29.1211°
orbit number at epoch: 22266

The dashed part of the orbit path shows where the satellite is in the earth's shadow,  

DLR